User: anonymous   Login
Location: Unspecified
(0.0000°N, 0.0000°E)
Time: 22:00:52
(UTC+00:00)
Language:

ISS - Orbit

View from above orbital plane
View from above orbital plane
View from above satellite
View from above satellite

Ground track
Ground track

The orbit data is extracted from the following two-line orbital elements,

1 25544U 98067A   16275.52925800  .00016717  00000-0  10270-3 0  9010
2 25544  51.6397 247.5816 0006920  24.4526 335.6954 15.54006206 21520
Epoch (UTC): 01 October 2016 12:42:07
Eccentricity: 0.0006920
inclination: 51.6397°
perigee height: 400 km
apogee height: 410 km
right ascension of ascending node: 247.5816°
argument of perigee: 24.4526°
revolutions per day: 15.54006206
mean anomaly at epoch: 335.6954°
orbit number at epoch: 2152

The dashed part of the orbit path shows where the satellite is in the earth's shadow,  

DLR